Regional Weather Roundup
Issued by NWS Wilmington, NC

Home | Current Version | Previous Version | Text Only | Print | Product List | Glossary On
Versions: 1 2 3 4 5 6 7 8 9 10 11 12 13 14 15 16 17 18 19 20 21 22 23 24 25 26
658
ASUS42 KILM 221713
RWRILM
RWRILM
REGIONAL HOURLY WEATHER ROUNDUP
NATIONAL WEATHER SERVICE WILMINGTON NC
100 PM EDT FRI MAY 22 2015

NOTE: "FAIR" INDICATES FEW OR NO CLOUDS BELOW 12,000 FEET WITH NO
SIGNIFICANT WEATHER AND/OR OBSTRUCTIONS TO VISIBILITY.

...............WFO WILMINGTON COUNTY WARNING AREA...............

......COASTAL NC AND SC COUNTIES......

CITY           SKY/WX    TMP DP  RH WIND       PRES   REMARKS
WILMINGTON     PTSUNNY   71  54  54 CALM      30.17S
N MYRTLE BEACH PTSUNNY   72  55  55 VRB7      30.18S
MYRTLE BEACH   PTSUNNY   72  54  53 E6        30.20R

......INLAND NC AND SC COUNTIES.......

CITY           SKY/WX    TMP DP  RH WIND       PRES   REMARKS
LUMBERTON      SUNNY     71  47  42 CALM      30.18F
ELIZABETHTOWN  MOSUNNY   70  51  49 CALM      30.18S
WHITEVILLE     MOSUNNY   70  52  52 CALM      30.18S
FLORENCE       SUNNY     73  47  39 N9        30.19S
DARLINGTON     SUNNY     72  46  40 NE9       30.21S

....................REST OF NORTH CAROLINA......................

.........EASTERN NC.........

CITY           SKY/WX    TMP DP  RH WIND       PRES   REMARKS
CAPE HATTERAS  PTSUNNY   66  52  60 VRB7      30.16S
JACKSONVILLE   MOSUNNY   68  48  49 NW3       30.18S
MOREHEAD CITY  SUNNY     70  53  54 VRB6      30.16F
KENANSVILLE    SUNNY     68  47  47 CALM      30.19S
NEW BERN       PTSUNNY   70  50  49 MISG      30.18F
ELIZABETH CITY SUNNY     68  47  46 N8        30.15S

.........CENTRAL NC.........

CITY           SKY/WX    TMP DP  RH WIND       PRES   REMARKS
RALEIGH DURHAM MOSUNNY   69  45  41 NE7       30.20S
ROCKY MOUNT    SUNNY     69  43  38 VRB7      30.18F
ROANOKE RAPIDS NOT AVBL
FAYETTEVILLE   SUNNY     71  48  43 MISG      30.18F
HOFFMAN        SUNNY     69  44  40 E3        30.23F

.........WESTERN NC.........

CITY           SKY/WX    TMP DP  RH WIND       PRES   REMARKS
CHARLOTTE      SUNNY     70  36  28 E8        30.23S
GREENSBORO     MOSUNNY   68  40  35 VRB5      30.21S
HICKORY        NOT AVBL
BOONE          NOT AVBL
ASHEVILLE      NOT AVBL

.....................REST OF SOUTH CAROLINA.....................

.........EASTERN SC.........

CITY           SKY/WX    TMP DP  RH WIND       PRES   REMARKS
CHARLESTON     PTSUNNY   76  55  48 N10       30.17S
BEAUFORT MCAS  PTSUNNY   76  54  46 N9        30.17S
HILTON HEAD    MOSUNNY   75  57  53 NE8       30.18S

.........CENTRAL SC.........

CITY           SKY/WX    TMP DP  RH WIND       PRES   REMARKS
COLUMBIA       MOSUNNY   73  45  36 N7        30.20F
ORANGEBURG     CLOUDY    74  48  39 NE9G16    30.20S
SUMTER SHAW    MOSUNNY   73  47  40 N8        30.18F

.........WESTERN SC.........

CITY           SKY/WX    TMP DP  RH WIND       PRES   REMARKS
GREENVILLE     NOT AVBL
ROCK HILL      SUNNY     70  41  34 N8        30.22F
ANDERSON       SUNNY     71  47  42 MISG      30.21F
CLEMSON        NOT AVBL
GREENWOOD      MOSUNNY   71  46  40 VRB3      30.23F


...................COASTAL AND OFFSHORE REPORTS..................

................LOCAL PIERS AND NC RESERVE................


STATION/POSITION TIME  SKY/WX   TEMP    WIND        PRES    VSBY
                                AIR SEA DIR/SP/G
                 (UTC)          (F)     (DEG/KT/KT) (MB)    (MI)
JOHNY MRCER PIER 1600            65 76   50/ 11/ 13 1021.2R
NC RESRV MASNBRO NOT AVBL
OCEAN CREST PIER 1702            69 73  320/  6/  9 1020.9R
SPRINGMAID  PIER 1600            67 74   30/  7/  8 1021.8R


................COASTAL AND OFFSHORE BUOYS................


STATION/POSITION TIME  SKY/WX   TEMP    WIND        PRES    VSBY
                                AIR SEA DIR/SP/G
                 (UTC)          (F)     (DEG/KT/KT) (MB)    (MI)
DIMNDSHOAL 41025 1650            62 77   10/ 14/ 16 1021.2R
WVE H/P(F/S)=  5/ 7 WND WVE H/P(F/S)=  3/ 5 SWL H/P/D(F/S/D)=  3/ 30/ 7

CAPE LOOKOUT     1700            67      20/  9/ 10 1021.2S
ONSLOW BAY 41036 NOT AVBL
5 WRITEBCH 41038 1608            65 76   40/ 10/ 16 1021.7R
MASONBORO  41110 1619               76                N/A
WVE H/P(F/S)=  2/ 4 WND WVE H/P(F/S)=  2/ 4

WILM HARBR 41108 1611               75                N/A
WVE H/P(F/S)=  3/ 6 WND WVE H/P(F/S)=  3/ 6

27WRITEBCH 41037 1600            63 77   40/ 14/ 17   N/A
FRYING PAN 41013 1650            68 74   40/ 16/ 19 1021.5R
WVE H/P(F/S)=  4/ 5 WND WVE H/P(F/S)=  5/ 5

SUNST NRSH 41024 1608            66      30/  6/ 10 1021.7R
CAPRS NRSH 41029 1608            69      60/ 17/ 23 1021.7R
EDISTO     41004 1650            69 76   30/ 19/ 25 1020.1R
WVE H/P(F/S)=  6/ 7 WND WVE H/P(F/S)=  7/ 7 SWL H/P/D(F/S/D)=  2/14



..........OFFSHORE BUOYS BEYOND 100 NM OFFSHORE...........
.....IN A TRIANGLE---HAT TO BERMUDA TO BAHAMAS TO HAT.....


STATION/POSITION TIME  SKY/WX   TEMP    WIND        PRES    VSBY
                                AIR SEA DIR/SP/G
                 (UTC)          (F)     (DEG/KT/KT) (MB)    (MI)
150E HAT   41001 NOT AVBL
W BERMUDA  41048 1650            75 74  210/ 16/ 17 1018.9R
WVE H/P(F/S)=  4/ 6 WND WVE H/P(F/S)=  5/ 6 SWL H/P/D(F/S/D)=  2/ 80/10

ATLANTIC S 41049 1650            76 78  110/ 10/ 12 1023.7R
WVE H/P(F/S)=  3/ 8 WND WVE H/P(F/S)=  2/ 3 SWL H/P/D(F/S/D)=  2/ 90/ 8

E BAHAMAS  41046 1650            80 81  110/ 12/ 14 1020.7F
WVE H/P(F/S)=  4/10 WND WVE H/P(F/S)=  3/ 5 SWL H/P/D(F/S/D)=  2/ 70/10

NE BAHAMAS 41047 1650            78 80  220/  8/ 10 1021.2R
WVE H/P(F/S)=  2/11 WND WVE H/P(F/S)=  2/ 3 SWL H/P/D(F/S/D)=  2/100/11

120E CANVRL41010 1620            81 80  310/  4/  6 1018.9R

END



USA.gov is the U.S. government's official web portal to all federal, state and local government web resources and services.